sat.trackr.live / text

‹ back to catalog

KUIPER-00078

NORAD 64825 · 2025-151K

PAYLOAD ACTIVE UNKNOWN

§ Identity

Operator
Country
US
Launch date
2025-07-16
Launch site
AFETR
Launch vehicle
Mass (kg)
RCS (m²)

External: N2YO · Heavens-Above · Gunter

§ Orbital elements

Epoch: 2026-09-21T20:07:12.406656Z

Period
97.30 min
Inclination
51.8980°
Eccentricity
0.0001170
Mean motion
14.79931568 rev/d
Perigee alt
628.7 km
Apogee alt
630.4 km
Semi-major
7,007.7 km
B*
9.7357e-5
RAAN
148.2246°
Arg perigee
99.9158°
Mean anomaly
260.1936°
Rev number
6,442

§ Raw data

KUIPER-000781 64825U 25151K   26264.83833804  .00000521  00000+0  97357-4 0  99982 64825  51.8980 148.2246 0001170  99.9158 260.1936 14.79931568 64421

JSON: /api/v1/satellites/64825 · /tle

For live sub-satellite position, see the globe view (requires WebGL).

§ Visibility from observer

Set your observer location to see the next 7 days of passes ≥ 10°. The values pass through the URL so the page stays shareable.

No JS? Fill the form by hand. The geolocation button needs JavaScript.